This demonstration page uses our WeatherBlox Daily Observations layout. Learn more.

Left ArrowRight Arrow

36.17497, -115.13722

Hourly Observations for October 29, 2021

Temp ( °F °C ) Dew Point ( °F °C ) Humidity (%) Winds ( mph kmh ) Pressure ( in mb ) Visibility ( mi km ) Precip ( " mm )
12:53 am 00:53 Clear 62 16.7 39 3.9 43 43 WNW 7 11 30.09 1019 10 16 N/A
1:53 am 01:53 Clear 61 16.1 39 3.9 44 44 WNW 7 11 30.07 1018 10 16 N/A
2:53 am 02:53 Clear 61 16.1 39 3.9 44 44 W 3 6 30.05 1018 10 16 N/A
3:53 am 03:53 Clear 59 15 38 3.3 46 46 SW 3 6 30.05 1018 10 16 N/A
4:53 am 04:53 Clear 57 13.9 39 3.9 51 51 WNW 8 13 30.05 1018 10 16 N/A
5:53 am 05:53 Clear 57 13.9 38 3.3 49 49 NW 5 7 30.05 1018 10 16 N/A
6:53 am 06:53 Clear 57 13.9 38 3.3 49 49 WNW 6 9 30.06 1018 10 16 N/A
7:53 am 07:53 Sunny 60 15.6 40 4.4 47 47 W 3 6 30.07 1018 9 14 N/A
8:53 am 08:53 Sunny 67 19.4 40 4.4 37 37 NW 5 7 30.08 1019 10 16 N/A
9:53 am 09:53 Sunny 71 21.7 40 4.4 32 32 N 3 6 30.07 1018 10 16 N/A
10:53 am 10:53 Sunny 74 23.3 40 4.4 29 29 N N/A 30.06 1018 10 16 N/A
11:53 am 11:53 Sunny 77 25 39 3.9 26 26 NNE 5 7 30.04 1017 10 16 N/A
12:53 pm 12:53 Sunny 77 25 39 3.9 26 26 VRB 5 7 30.01 1016 10 16 N/A
1:53 pm 13:53 Sunny 79 26.1 38 3.3 23 23 VRB 3 6 29.97 1015 10 16 N/A
2:53 pm 14:53 Sunny 81 27.2 37 2.8 21 21 E 5 7 29.94 1014 10 16 N/A
3:53 pm 15:53 Sunny 82 27.8 35 1.7 18 18 E 7 11 29.92 1013 10 16 N/A
4:53 pm 16:53 Sunny 80 26.7 35 1.7 20 20 VRB 5 7 29.92 1013 10 16 N/A
5:53 pm 17:53 Clear 78 25.6 35 1.7 21 21 ENE 3 6 29.92 1013 10 16 N/A
6:53 pm 18:53 Clear 75 23.9 37 2.8 25 25 N N/A 29.93 1014 10 16 N/A
7:53 pm 19:53 Clear 71 21.7 39 3.9 31 31 W 5 7 29.94 1014 10 16 N/A
8:53 pm 20:53 Clear 67 19.4 40 4.4 37 37 NW 5 7 29.94 1014 10 16 N/A
9:53 pm 21:53 Clear 67 19.4 40 4.4 37 37 WNW 6 9 29.95 1014 10 16 N/A
10:53 pm 22:53 Clear 63 17.2 39 3.9 41 41 NW 8 13 29.94 1014 10 16 N/A
11:53 pm 23:53 Clear 64 17.8 39 3.9 40 40 NW 6 9 29.93 1014 10 16 N/A

Powered by AerisWeather